Home   Weather   Vallejo   Past weeks

Flag for USA Past Weather in Vallejo, California, USA — Yesterday and Last 2 Weeks

Now
46 °F

Clear.


Feels Like: 45 °F
Forecast: 49 / 73 °F
Wind: 3 mph from South

Location: Napa County Airport

Current Time: Apr 28, 2017 at 3:25:41 am

Latest Report: Apr 28, 2017 at 2:54 am


Visibility: 10 mi

Pressure: 29.99 "Hg

Humidity: 83%

Dew Point: 41 °F

Location of VallejoLocation

Past Weather in Vallejo — Graph

°F

Vallejo Temperature Yesterday

Maximum temperature yesterday: 72 °F (at 2:54 pm)
Minimum temperature yesterday: 43 °F (at 4:54 am)
Average temperature yesterday: 57 °F

High & Low Weather Summary for the Past Weeks

 TemperatureHumidityPressure
High76 °F (Apr 21, 3:54 pm)93% (Apr 16, 11:54 pm)30.30 "Hg (Apr 16, 11:54 pm)
Low39 °F (Apr 14, 5:54 am)39% (Apr 14, 2:54 pm)29.87 "Hg (Apr 13, 5:54 am)
Average57 °F76%30.04 "Hg
* Reported Apr 13 1:00 am — Apr 28 1:54 am, Vallejo, Weather by CustomWeather, © 2017

Note: Actual official high and low records may vary slightly from our data, if they occured in-between our weather recording intervals... More about our weather records

Advertising

Vallejo Weather History for the Previous 24 Hours

Scroll right to see more
 ConditionsComfort  
Time TempWeatherWind HumidityBarometerVisibility
1:54 am
Fri, Apr 28
50 °FClear.No wind77%29.99 "Hg10 mi
12:54 am51 °FClear.No wind74%29.99 "Hg10 mi
11:54 pm
Thu, Apr 27
53 °FClear.No wind69%29.99 "Hg10 mi
10:54 pm56 °FClear.8 mph62%29.98 "Hg10 mi
9:54 pm58 °FClear.8 mph60%29.97 "Hg10 mi
8:54 pm57 °FClear.9 mph69%29.96 "Hg10 mi
7:54 pm60 °FSunny.13 mph60%29.95 "Hg10 mi
6:54 pm64 °FSunny.14 mph56%29.94 "Hg10 mi
5:54 pm68 °FSunny.14 mph51%29.94 "Hg10 mi
4:54 pm69 °FPassing clouds.17 mph49%29.95 "Hg10 mi
3:54 pm72 °FSunny.13 mph46%29.96 "Hg10 mi
2:54 pm72 °FPassing clouds.8 mph49%29.98 "Hg10 mi
1:54 pm71 °FSunny.12 mph49%29.99 "Hg10 mi
12:54 pm71 °FSunny.7 mph47%30.01 "Hg10 mi
11:54 am68 °FSunny.6 mph51%30.03 "Hg10 mi
10:54 am64 °FSunny.5 mph65%30.03 "Hg10 mi
9:54 am60 °FSunny.5 mph75%30.04 "Hg10 mi
8:54 am57 °FSunny.3 mph81%30.03 "Hg10 mi
8:05 am54 °FFog.5 mph90%30.06 "Hg3 mi
7:54 am53 °FSunny.3 mph89%30.02 "Hg10 mi
7:07 am49 °FFog.3 mph90%30.03 "Hg4 mi
6:14 am45 °FFog.No wind90%30.03 "Hg1 mi
5:54 am46 °FClear.No wind89%30.00 "Hg10 mi
5:03 am46 °FPassing clouds.No wind89%30.01 "Hg8 mi
4:54 am43 °FFog.3 mph93%29.99 "Hg2 mi
4:37 am45 °FFog.3 mph93%30.02 "Hg1 mi
4:08 am46 °FFog.No wind89%30.02 "Hg2 mi
3:54 am47 °FClear.3 mph93%29.98 "Hg10 mi
Weather by CustomWeather, © 2017

See weather overviewHow to use our weather pages